User: anonymous   Login
Location: Unspecified
(0.0000°N, 0.0000°E)
Time: 16:30:03
(UTC+00:00)
Language:

AO-73 - Orbit

View from above orbital plane
View from above orbital plane
View from above satellite
View from above satellite

Ground track
Ground track

The orbit data is extracted from the following two-line orbital elements,

1 39444U 13066AE  17204.68063417 +.00000277 +00000-0 +40721-4 0  9993
2 39444 097.6284 246.2501 0059449 146.0147 214.4897 14.81466000196423
Epoch (UTC): 23 July 2017 16:20:06
Eccentricity: 0.0059449
inclination: 97.6284°
perigee height: 583 km
apogee height: 666 km
right ascension of ascending node: 246.2501°
argument of perigee: 146.0147°
revolutions per day: 14.81466000
mean anomaly at epoch: 214.4897°
orbit number at epoch: 19642

The dashed part of the orbit path shows where the satellite is in the earth's shadow,  

DLR